ONEWEB-0273, 48991

Orbit data source: Space-Track

ONEWEB-0273, 48991 is a payload satellite owned by One Web (NAA) (UK) in LEO that was launched on Thu, 01 Jul 2021 UTC via a SOYUZ-2-1B launch vehicle from the Vostochny Cosmodrome (VOSTO). Payload-class satellites include a variety of spacecraft equipped with specific instruments for various scientific and technological missions. These include communications satellites like Starlink; space stations such as the ISS; scientific satellites like the Hubble; Earth observation satellites from companies like Planet Labs, Umbra, and HawkEye 360; GPS; miniature CubeSats for education and research; and military/defense satellites.

Loading next visibility...
Identifier
48991, 2021-060AA
Orbit
LEO
Country
Flag of UKUK
Related business
Manufacturer
One Web
Mission
Operational Commercial Communications
Bus & Motor
ARROW, Unknown motor
Mass
148 kg wet, ~140 kg dry
Launch date (UTC)
2021-07-01 (4 years ago)
Launch vehicle
SOYUZ-2-1B
Launch site
Vostochny Cosmodrome (VOSTO)
Object type
Payload
Rocket body
Debris
Shape & HBR
Trap Box + 2 Pan, 6.7 m
Radar Cross Section
3.464 m², Medium (>0.1 m² and < 1m²)

Expand to show TLE details & history
Last TLE update: 10 hours ago

TLE from 10 hours ago
0 ONEWEB-0273
1 48991U 21060AA  25349.75850284  .00000061  00000-0  12468-3 0  9993
2 48991  87.9045 265.3065 0001752  68.0410 292.0907 13.16596608215458
Epoch: 2025-12-15T18:12Z
TLE epoch observation values (Epoch: 2025-12-15T18:12:14.645Z)
Latitude
-0.00002°
Longitude
-92.40699°
Altitude
1,200.145 km
Speed
7.254 km/s
True Right ascension
17h 41m 13s
True Declination
0° 00' 00"
Sunlit
Object was in daylight at epoch
Visualization orbit readout
Latitude
Unknown
Longitude
Unknown
Altitude
Unknown
Speed
Unknown
Apparent Right ascension
Unknown
Apparent Declination
Unknown
Sunlit
N/A
Visualization observer readout
Local Sidereal Time
03:12:45
Azimuth
Unknown
Elevation
Unknown
Doppler factor
Unknown
Orbital elements
Apogee altitude
1,196.185 km
Perigee altitude
1,193.531 km
Semi-major axis
7,572.995 km
Eccentricity
0.00018
Inclination
87.9045°
RAAN
265.3065°
Arg. of periapsis
68.041°
True anomaly
292.0721°
Mean anomaly
292.0907°
Eccentric anomaly
292.0814°
Mean motion
3.29338 °/min
Orbital period
109.31 mins
BSTAR
0.00012468
Loading maneuver chart data...
Computing Atmospheric mass density...
Loading historical data...
Loading historical data...
Loading historical data...
Loading historical data...
Loading historical data...
Loading historical data...
Loading historical data...

Documentation

Showing up to 5 results
|